Location: ???????????
(54.6970°N, 39.1477°E)
Time: 11:38:14
(UTC+00:00)

CENTAUR R/B - Pass Details

Date: 19 May 2025
Orbit: 645 x 1537 km, 63.4° (Epoch: 14 June)

Event Time Altitude Azimuth Distance (km) Brightness Sun altitude
Rises 19:34:44 0° 303° (WNW) 3,905 6.7 -12.0°
Reaches altitude 10° 19:37:15 10° 307° (NW) 3,066 6.1 -12.2°
Maximum altitude 19:44:46 63° 28° (NNE) 1,477 3.6 -12.6°
Drops below altitude 10° 19:53:44 10° 109° (ESE) 3,626 5.1 -13.1°
Sets 19:56:56 0° 113° (ESE) 4,657 5.6 -13.3°
